Location: Leuk
(46.3174°N, 7.6341°E)
Time: 17:56:40
(UTC+00:00)

Cosmos 2219 Rocket - Pass Details

Date: 09 March 2021
Orbit: 826 x 848 km, 71.0° (Epoch: 15 April)

Event Time Altitude Azimuth Distance (km) Brightness Sun altitude
Rises 04:35:58 0° 327° (NNW) 3,406 5.1 -14.2°
Reaches altitude 10° 04:38:33 10° 320° (NW) 2,470 4.3 -13.8°
Maximum altitude 04:43:45 38° 254° (WSW) 1,264 2.6 -12.9°
Drops below altitude 10° 04:48:56 10° 187° (S) 2,463 4.5 -12.0°
Sets 04:51:30 0° 180° (S) 3,395 5.3 -11.6°
